Powrót do katalogu

STARLINK-31231

AktywnyŁącznośćVLEO
NORAD 59034·PAYLOAD·🇺🇸 United States

Wystrzelony Feb 25, 2024 z Cape Canaveral Space Force Station

Loading…

Następne Przeloty (najbliższe 24 godziny)

TLE

ŚwieżeSource: CelesTrak SupGP

Epoka: Sep 14, 2026, 20:46 UTC

1 59034C 24038M   26257.86576389  .00060062  00000+0  21758-2 0  2577
2 59034  43.0034  35.2313 0001401 272.8858 312.7443 15.27543612    11

Śledź STARLINK-31231 w czasie rzeczywistym z AllMySat

Download on the App Store